Probability
1 1 1 0 0 0 0 0 0 0 0 0 0 0 0 0 0 0 0 0 0 0 0 0 0 0 0 0 1 2 3 1 0 0 0 0 0 0 0 0 0 0 0 0
0 0 0 0 0 0 0 0 0 0 0 0 0 0 0 0 0 0 0 0 0 0 0 0 0 0 0 0 1 2 3 2 1 0 0 0 0 0 0 0 0 0 0 0
0 0 0 0 0 0 0 0 0 0 0 0 0 0 0 0 0 0 0 0 0 0 0 0 0 0 0 0 0 1 3 3 2 1 0 0 0 0 0 0 0 0 0 0
0 0 0 0 0 0 0 0 0 0 0 0 0 0 0 0 0 0 0 0 0 0 0 0 0 0 0 0 0 1 2 3 3 1 0 0 0 0 0 0 0 0 0 0
0 0 0 0 0 0 0 0 0 0 0 0 0 0 0 0 0 0 0 0 0 0 0 0 0 0 0 0 0 1 2 3 3 2 1 0 0 0 0 0 0 0 0 0
0 0 0 0 0 0 0 0 0 0 0 0 0 0 0 0 0 0 0 0 0 0 0 0 0 0 0 0 0 0 1 2 3 3 2 1 0 0 0 0 0 0 0 0
0 0 0 0 0 0 0 0 0 0 0 0 0 0 0 0 0 0 0 0 0 0 0 0 0 0 0 0 0 0 0 1 3 3 3 1 0 0 0 0 0 0 0 0
0 0 0 0 0 0 0 0 0 0 0 0 0 0 0 0 0 0 0 0 0 0 0 0 0 0 0 0 0 0 0 1 2 3 3 2 1 0 0 0 0 0 0 1
0 0 0 0 0 0 0 0 0 0 0 0 0 0 0 0 0 0 0 0 0 0 0 0 0 0 0 0 0 0 0 0 1 1 2 3 2 1 0 0 0 0 1 2
0 0 0 0 0 0 0 0 0 0 0 0 0 0 0 0 0 0 0 0 0 0 0 0 0 0 0 0 0 0 0 0 0 0 1 2 2 1 0 0 0 0 1 2
0 0 0 0 0 0 0 0 0 0 0 0 0 0 0 0 0 0 0 0 0 0 0 0 0 0 0 0 0 0 0 0 0 0 0 1 1 1 0 0 0 0 1 2
0 0 0 0 0 0 0 0 0 0 0 0 0 0 0 0 0 0 0 0 0 0 0 0 0 0 0 0 0 0 0 0 0 0 0 0 0 0 0 0 0 0 0 1
0 0 0 0 0 0 0 0 0 0 0 0 0 0 0 0 0 0 0 0 0 0 0 0 0 0 0 0 0 0 0 0 0 0 0 0 0 0 0 0 0 0 0 0
0 0 0 0 0 0 0 0 0 0 0 0 0 0 0 0 0 0 0 0 0 0 0 0 0 0 0 0 0 0 0 0 0 0 0 0 0 0 0 0 0 0 0 0
0 0 0 0 0 0 0 0 0 0 0 0 0 0 0 0 0 0 0 0 0 0 0 0 0 0 0 0 0 0 0 0 0 0 0 0 0 0 0 0 0 0 0 0
0 0 0 0 0 0 0 0 0 0 0 0 0 0 0 0 0 0 0 0 0 0 0 0 0 0 0 0 0 0 0 0 0 0 0 0 0 0 0 0 0 0 0 0
0 0 0 0 0 0 0 0 0 0 0 0 0 0 0 0 0 0 0 0 0 0 0 0 0 0 0 0 0 0 0 0 0 0 0 0 0 0 0 0 0 0 0 0
0 0 0 0 0 0 0 0 0 0 0 0 0 0 0 0 0 0 0 0 0 0 0 0 0 0 0 0 0 0 0 0 0 0 0 0 0 0 0 0 0 0 0 0
0 0 0 0 0 0 0 0 0 0 0 0 0 0 0 0 0 0 0 0 0 0 0 0 0 0 0 0 0 0 0 0 0 0 0 0 0 0 0 0 0 0 0 0
0 0 0 0 0 0 0 0 0 0 0 0 0 0 0 0 0 0 0 0 0 0 0 0 0 0 0 0 0 0 0 0 0 0 0 0 0 0 0 0 0 0 0 0
0 0 0 0 0 0 0 0 0 0 0 0 0 0 0 0 0 0 0 0 0 0 0 0 0 0 0 0 0 0 0 0 0 0 0 0 0 0 0 0 0 0 0 0
0 0 0 0 0 0 0 0 0 0 0 0 0 0 0 0 0 0 0 0 0 0 0 0 0 0 0 0 0 0 0 0 0 0 0 0 0 0 0 0 0 0 0 0
0 0 0 0 0 0 0 0 0 0 0 0 0 0 0 0 0 0 0 0 0 0 0 0 0 0 0 0 0 0 0 0 0 0 0 0 0 0 0 0 0 0 0 0
0 0 0 0 0 0 0 0 0 0 0 0 0 0 0 0 0 0 0 0 0 0 0 0 0 0 0 0 0 0 0 0 0 0 0 0 0 0 0 0 0 0 0 0
0 0 0 0 0 0 0 0 0 0 0 0 0 0 0 0 0 0 0 0 0 0 0 0 0 0 0 0 0 0 0 0 0 0 0 0 0 0 0 0 0 0 0 0
0 0 0 0 0 0 0 0 0 0 0 0 0 0 0 0 0 0 0 0 0 0 0 0 0 0 0 0 0 0 0 0 0 0 0 0 0 0 0 0 0 0 0 0
Wind_Speed
10 11 17 19 20 15 11 12 13 11 9 10 13 15 13 12 12 11 10 10 10 10 9 9 9 10 10 10 11 12 13 13 11 10 10 10 9 8 7 7 8 9 9 10
10 20 20 15 15 16 16 17 15 9 7 7 10 14 12 12 13 12 12 11 11 10 9 9 9 9 10 11 12 12 13 13 13 11 10 8 7 7 8 7 9 10 11 11
22 13 14 15 15 17 18 18 16 10 5 5 6 12 14 14 14 14 14 13 12 11 10 9 9 10 10 12 13 12 13 14 14 13 8 7 7 6 8 10 10 12 12 11
18 15 14 16 17 17 18 15 12 10 8 7 7 10 11 12 15 16 16 15 14 13 11 10 9 9 10 11 12 13 13 13 13 13 12 12 12 13 13 10 9 10 12 13
13 15 18 19 19 17 10 8 11 11 9 9 9 10 8 8 13 13 13 14 14 12 11 10 10 10 10 10 10 12 12 13 13 14 15 14 13 12 8 8 10 11 12 14
12 9 14 16 13 12 7 6 6 6 7 15 17 14 11 10 13 11 11 11 11 10 9 9 8 7 8 8 9 10 12 13 13 14 15 16 16 14 11 11 11 11 10 11
13 12 9 7 11 11 10 9 7 9 11 13 11 14 12 8 10 10 10 8 8 8 9 9 8 7 7 7 8 9 11 12 12 13 14 16 17 16 16 13 12 11 10 11
15 13 16 11 14 13 16 15 11 9 7 5 9 15 10 7 8 7 6 5 4 4 6 6 6 6 6 6 7 8 10 11 11 12 13 13 14 12 11 13 11 11 10 11
14 12 12 15 11 11 13 16 11 5 3 5 7 8 8 7 7 7 7 5 5 5 4 4 4 4 4 5 6 8 9 10 10 10 11 12 13 13 12 12 12 10 10 9
6 8 10 12 9 13 11 8 7 10 9 10 8 10 8 7 9 8 8 7 5 4 4 4 3 3 3 4 5 6 7 8 9 9 9 9 11 12 12 11 13 12 11 10
8 7 7 12 18 18 14 13 10 7 7 7 7 7 6 7 7 7 5 4 3 2 1 1 1 2 2 2 2 4 5 6 7 8 8 9 9 10 11 11 12 12 11 11
12 5 7 11 9 11 15 16 15 11 8 7 6 7 1 2 2 3 3 1 1 1 1 1 1 2 2 3 3 4 4 5 6 6 7 8 8 8 10 11 12 11 12 11
12 7 7 6 6 9 12 15 16 12 7 7 8 8 2 1 1 1 1 1 0 0 1 2 2 2 3 4 4 4 4 5 5 5 6 7 8 8 9 10 10 10 10 11
10 7 10 13 8 10 13 15 16 15 11 11 13 12 7 4 3 2 1 0 1 1 2 2 3 3 4 4 5 5 5 5 5 5 6 7 7 8 9 8 8 9 9 10
8 8 8 10 7 7 10 14 17 19 16 13 13 16 15 8 5 3 2 2 2 2 3 3 3 4 4 5 6 6 7 6 5 5 6 7 7 7 7 7 7 8 8 9
7 6 6 8 10 10 10 14 17 18 18 17 15 16 10 6 4 4 4 2 2 3 4 4 5 5 5 6 7 8 8 8 7 7 7 6 6 6 6 7 7 7 8 8
8 7 7 8 8 7 14 15 17 16 16 16 19 16 8 7 6 4 3 1 1 2 4 5 5 5 6 6 7 7 8 8 8 8 7 6 6 6 7 7 6 7 8 7
8 8 5 4 6 15 11 9 13 14 14 13 11 8 7 7 6 2 1 0 2 3 3 5 5 6 6 6 6 7 7 7 7 8 8 7 6 7 7 6 7 7 6 7
9 8 6 5 7 8 5 7 10 13 13 10 10 8 6 4 2 2 1 0 1 2 3 4 5 6 7 7 7 7 8 7 7 8 8 8 7 7 7 7 8 7 6 7
8 8 7 6 7 9 7 5 5 5 9 8 8 7 5 3 5 4 2 3 3 3 3 4 5 6 6 7 7 7 8 8 8 9 9 9 8 8 8 8 8 6 6 7
10 9 11 9 8 7 4 3 5 9 9 3 3 3 3 4 3 1 3 3 4 4 5 5 6 6 7 7 7 8 8 8 9 9 10 9 8 8 8 7 6 5 5 5
10 8 9 7 8 10 4 5 7 4 2 2 2 1 1 1 2 2 3 3 4 5 6 6 6 7 7 7 7 9 9 9 9 9 9 9 8 7 6 6 6 5 5 6
7 8 6 7 7 2 3 4 2 2 3 2 1 2 1 1 2 3 3 4 4 5 6 6 6 8 7 6 6 9 10 10 10 9 9 8 8 7 6 5 6 5 4 4
2 1 1 2 2 2 3 3 3 3 3 2 3 2 1 1 2 4 4 5 5 6 6 6 7 8 8 7 7 8 9 9 9 9 9 8 7 7 5 4 4 4 4 4
3 3 2 3 2 2 1 2 2 3 3 3 3 2 2 2 3 4 4 5 5 5 6 6 6 8 9 8 8 8 8 8 9 9 8 8 7 6 5 5 4 4 4 4
3 4 5 6 4 4 3 2 2 2 1 1 1 2 2 2 3 4 4 4 5 6 6 6 7 8 9 9 9 8 8 8 8 8 8 6 6 5 5 5 5 4 6 6
Wind_Direction
185 201 209 208 212 229 234 227 228 232 228 222 232 242 241 241 247 249 246 243 240 233 227 215 204 195 189 190 190 191 193 192 189 194 198 202 208 208 209 209 206 202 199 198
194 218 217 212 214 226 237 242 246 252 240 239 250 254 250 244 245 244 244 242 241 240 232 221 209 197 192 193 194 196 197 194 194 198 200 203 204 209 213 213 213 210 205 201
211 214 206 214 216 219 229 233 237 242 260 261 277 268 250 247 246 246 244 243 242 238 234 226 215 206 198 196 197 200 201 199 199 196 192 196 203 210 212 213 214 212 208 205
222 223 206 209 217 216 230 227 235 238 238 241 215 265 247 239 239 238 237 236 236 235 232 228 222 214 206 203 199 200 202 202 200 195 196 197 203 211 215 212 212 208 207 209
213 204 210 213 214 213 226 218 226 232 237 250 230 254 255 230 241 236 231 228 230 228 225 226 223 219 214 205 200 199 202 206 203 200 200 202 211 217 216 210 210 208 208 210
227 211 210 219 215 209 205 216 232 235 231 240 228 236 259 218 231 236 232 225 224 223 225 230 229 220 217 209 201 199 202 208 208 206 205 207 212 214 214 213 212 209 208 209
219 226 218 199 200 199 192 190 206 211 217 234 204 223 246 212 220 227 229 226 222 217 218 224 229 224 218 212 205 203 206 212 210 210 212 212 215 216 218 218 217 212 210 210
199 211 205 200 204 197 199 200 207 213 215 226 193 224 241 214 223 231 233 223 219 224 224 222 226 225 220 215 208 208 212 217 214 214 217 218 218 219 222 221 221 219 217 215
198 214 190 197 199 194 199 212 219 240 266 268 232 243 249 216 215 219 224 222 224 232 231 227 232 233 229 225 220 216 218 220 220 220 221 223 222 221 222 222 223 226 223 216
196 202 191 190 191 214 215 191 187 210 216 232 234 233 236 215 214 212 214 212 216 230 239 240 237 235 243 242 237 231 224 223 224 223 225 228 227 226 226 225 225 226 225 220
216 207 190 186 196 196 195 202 205 205 209 213 236 240 217 211 202 201 196 186 201 230 267 278 282 272 273 276 265 253 242 237 235 232 231 233 232 230 229 228 228 228 228 223
201 202 216 215 212 208 207 207 203 210 215 211 231 255 318 71 94 136 140 156 149 142 295 302 330 326 313 299 289 280 265 250 244 238 236 236 237 235 233 233 232 228 228 226
187 190 197 205 218 212 217 216 216 220 222 218 223 247 231 126 60 164 170 174 170 254 321 346 355 343 329 318 310 301 288 272 262 249 241 241 241 239 239 238 237 235 232 228
183 197 209 213 200 186 206 213 213 215 224 229 231 245 249 235 237 264 291 57 46 356 352 350 339 331 323 317 311 304 298 293 286 269 252 248 246 244 244 242 239 236 235 233
185 212 226 243 244 210 206 212 215 220 223 228 234 239 246 250 246 260 283 292 319 326 330 324 325 326 325 324 322 319 314 311 306 288 268 261 260 256 252 248 245 241 237 236
191 203 212 245 246 240 235 221 220 224 227 234 244 251 249 248 249 266 277 279 284 304 317 326 334 333 331 330 326 323 319 316 312 295 277 274 272 265 258 253 249 247 244 241
183 184 196 228 224 238 239 223 221 223 224 225 236 243 249 254 250 252 263 273 296 325 333 330 328 327 324 318 314 311 309 313 309 299 288 280 275 270 265 263 257 251 247 243
187 191 201 204 196 229 232 213 219 227 232 231 235 237 239 246 252 223 141 129 316 325 323 320 324 323 321 320 317 312 309 308 303 296 291 288 283 275 271 264 256 254 251 246
196 192 198 197 225 246 247 213 206 216 231 229 235 238 245 251 254 221 172 77 327 330 326 322 321 317 318 320 322 320 315 313 307 302 300 296 287 280 274 265 261 259 257 254
199 195 202 203 216 226 225 202 192 193 239 226 224 229 233 221 228 232 23 12 358 353 343 332 328 320 319 325 331 322 313 311 305 303 299 296 290 279 272 268 266 264 256 255
186 199 211 216 225 242 225 193 150 192 227 202 194 200 204 221 234 310 6 3 359 348 344 343 335 327 325 331 329 313 308 303 305 307 303 300 294 285 277 275 271 266 262 258
183 188 199 200 217 233 191 171 188 193 92 99 98 81 78 305 335 350 350 345 344 343 346 346 334 324 325 332 326 310 305 307 311 308 305 303 301 298 291 284 280 270 257 256
195 194 188 195 212 185 143 155 132 107 125 112 92 51 49 4 343 340 337 337 339 342 337 335 325 316 319 326 323 309 310 316 315 311 306 304 303 298 291 283 281 277 259 252
247 304 152 194 220 166 117 91 65 70 92 83 78 62 37 332 321 325 328 331 334 335 331 328 321 316 316 322 318 307 312 317 315 311 309 307 305 302 295 283 275 271 265 257
195 174 181 227 210 124 192 129 98 65 62 57 41 35 12 329 318 320 317 321 324 325 326 323 317 311 310 316 314 315 320 320 315 309 308 308 304 299 297 288 278 270 266 254
195 194 196 217 196 190 198 149 118 111 65 28 6 344 349 343 317 318 312 318 321 320 323 319 314 312 312 316 317 322 326 323 315 311 311 309 306 303 298 295 298 284 266 271